Weather in Zhelobovo

Russia / Ryazan Oblast     53°43′25″N   40°45′07″E
temp.,
°C
wind,
m/s
gust,
m/s
humid.,
%
clouds,
%
prec.,
mm/h
press.,
hPa
HPBL,
m
1 march, mon
mon100:00−10nne129777 0.1 102021
03:00−11n229779 0.1 102221
06:00−12n229775 0.0 102421
09:00−11nnw229661 0.0 102554
12:00−7w239133 0.0 1026211
15:00−5sw359456 0.0 1024261
18:00−6wsw5109592 0.0 1023232
21:00−2wsw6119296 0.1 1021531
2 march, tue
tue200:00−2wsw71294100 0.1 1018397
03:000wsw71394100 0.1 1016543
06:00+1wsw71394100 0.0 1012596
09:00+1w71397100 0.1 1010637
12:00+1wnw612100100 0.2 1008609
15:00+1wnw51199100 0.4 1008592
18:00−1nw51190100 0.0 1008330
21:00−2nw4129098 0.1 1009459
3 march, wed
wed300:00−2nw5119197 0.0 1009368
03:00−4nw5129597 0.1 1010361
06:00−4nnw71393100 0.4 1011667
09:00−6nw7139199 0.5 1013699
12:00−4nw71189100 0.1 1014791
15:00−3nw5108389 0.1 1015831
18:00−3wnw5109364 0.1 1014551
21:00−2wnw5119082 0.2 1015543
4 march, thu
thu400:00−3w6139199 0.1 1014495
03:00−4w5119399 0.1 1013323
06:00−4wsw6139198 0.0 1011372
09:00−3wsw8158997 0.0 1008498
12:000wsw91786100 0.0 1005803
15:00+1wsw91682100 0.0 1003957
18:000wsw81781100 0.0 1000860
21:00+1wsw91597100 0.1 1000970
5 march, fri
fri500:000w81397100 0.4 1001793
03:00−4wnw4990100 0.8 1004244
06:00−8nw349568 0.0 100781
09:00−7nw239557 0.0 100989
12:00−5nw128962 0.0 1011266
15:00−3wnw128880 0.0 1012356
18:00−6wnw119099 0.0 101321
21:00−7se119191 0.0 101421